User: anonymous   Login
Location: Unspecified
(0.0000°N, 0.0000°E)
Time: 18:52:30
(UTC+00:00)
Language:

ORS OBJECT Z - Orbit

View from above orbital plane
View from above orbital plane
View from above satellite
View from above satellite

Ground track
Ground track

The orbit data is extracted from the following two-line orbital elements,

1 39403U 13064Z   17084.58459485 +.00006175 +00000-0 +12170-3 0  9994
2 39403 040.5246 190.7859 0002492 309.2697 050.7900 15.47551203184494
Epoch (UTC): 25 March 2017 14:01:48
Eccentricity: 0.0002492
inclination: 40.5246°
perigee height: 422 km
apogee height: 425 km
right ascension of ascending node: 190.7859°
argument of perigee: 309.2697°
revolutions per day: 15.47551203
mean anomaly at epoch: 50.7900°
orbit number at epoch: 18449

The dashed part of the orbit path shows where the satellite is in the earth's shadow,  

DLR